Location: Joplin, MO
(37.0842°N, 94.5133°W)
Time: 13:58:37
(UTC+02:00)

Transit 2A - Visible Passes

Search period start: 30 March 2023 00:00
Search period end: 09 April 2023 00:00
Orbit: 591 x 964 km, 66.7° (Epoch: 29 March)

Date Brightness Start Highest point End Pass type
(mag) Time Alt. Az. Time Alt. Az. Time Alt. Az.
30 Mar 8.4 10:38:15 17° E 10:38:15 17° E 10:41:06 10° ENE visible
30 Mar 6.3 12:18:43 47° WSW 12:19:55 57° WNW 12:25:47 10° NNE visible
31 Mar 6.0 11:45:18 84° NW 11:45:18 84° NW 11:51:13 10° NNE visible
31 Mar 8.1 13:26:21 10° WNW 13:29:29 15° NW 13:32:46 10° N visible
01 Apr 6.8 11:11:50 52° ENE 11:11:50 52° ENE 11:16:31 10° NNE visible
01 Apr 7.7 12:52:17 16° WNW 12:54:29 20° NW 12:58:50 10° N visible
02 Apr 7.8 10:38:17 31° ENE 10:38:17 31° ENE 10:41:41 10° NE visible
02 Apr 7.3 12:18:45 27° WNW 12:19:34 28° NW 12:24:39 10° N visible
03 Apr 8.5 10:04:42 19° ENE 10:04:42 19° ENE 10:06:39 10° NE visible
03 Apr 7.0 11:45:09 38° NW 11:45:09 38° NW 11:50:18 10° NNE visible
04 Apr 9.0 09:31:04 11° ENE 09:31:04 11° ENE 09:31:18 10° ENE visible
04 Apr 7.1 11:11:31 43° N 11:11:31 43° N 11:15:50 10° NNE visible
04 Apr 8.4 12:53:23 10° NW 12:54:38 11° NW 12:55:54 10° NNW visible
05 Apr 7.6 10:37:50 35° NNE 10:37:50 35° NNE 10:41:16 10° NNE visible
05 Apr 8.1 12:18:16 14° NW 12:19:32 15° NW 12:22:48 10° N visible
06 Apr 8.2 10:04:05 25° NE 10:04:05 25° NE 10:06:35 10° NNE visible
06 Apr 7.9 11:44:33 20° NW 11:44:33 20° NW 11:48:52 10° N visible
07 Apr 8.7 09:30:20 17° NE 09:30:20 17° NE 09:31:46 10° NE visible
07 Apr 7.8 11:10:47 25° NNW 11:10:47 25° NNW 11:14:40 10° N visible
08 Apr 9.0 08:56:32 11° NE 08:56:32 11° NE 08:56:44 10° NE visible
08 Apr 7.8 10:36:58 28° N 10:36:58 28° N 10:40:20 10° NNE visible
